Location: Twillingate Astronomical Observatory
(49.6173°N, 54.7580°W)
Time: 02:59:49
(UTC-03:-30)

Amateur Radio Satellites - All Passes

Search period start: 21 November 2017 02:29
Search period end: 22 November 2017 02:29
Location: Twillingate Astronomical Observatory, 49.6173°N, 54.7580°W

Satellite Date Start Highest point End Downlink Frequencies (MHz)
Time Altitude Azimuth
BEESAT 2 21 Nov 02:42:09 02:42:41 10° 109° (ESE) 02:43:14 435.950
RS-15 21 Nov 02:53:48 03:05:55 77° 46° (NE) 03:17:20 29.354- 29.394
ISS 21 Nov 02:58:48 03:01:52 38° 211° (SSW) 03:04:56 437.550
BEESAT 3 21 Nov 03:05:10 03:09:03 51° 124° (ESE) 03:12:57 437.485
BEESAT 21 Nov 03:09:08 03:13:43 45° 261° (W) 03:18:19 436.000
SO-50 21 Nov 03:10:12 03:12:31 14° 11° (N) 03:14:52 436.795
Oscar 19 21 Nov 03:17:26 03:21:37 26° 300° (WNW) 03:25:48 437.125/150
ITUPSAT 1 21 Nov 03:18:46 03:23:14 38° 262° (W) 03:27:43 437.325
M-CUBED/EXP-1 PRIME 21 Nov 03:22:13 03:26:44 86° 111° (ESE) 03:31:22 437.505
AO-85 21 Nov 03:24:20 03:24:56 10° 108° (ESE) 03:25:33 145.980
ITAMSAT 1 21 Nov 03:29:15 03:34:08 38° 97° (E) 03:38:57 435.822/435.867
PCSat 21 Nov 03:34:40 03:38:14 17° 337° (NNW) 03:41:47 145.827
MOZHAYETS 4 21 Nov 03:35:47 03:39:18 22° 268° (W) 03:42:50
AO-7 21 Nov 03:39:46 03:48:02 59° 104° (ESE) 03:56:15 .
Gurwin Techsat 1B 21 Nov 03:39:57 03:44:09 24° 301° (WNW) 03:48:21 435.225
CUBESAT XI-V 21 Nov 03:44:55 03:49:28 63° 259° (W) 03:54:04 437.345
KKS-1 21 Nov 03:51:56 03:56:11 45° 69° (ENE) 04:00:30 437.445
nSIGHT-1 21 Nov 03:53:09 03:54:51 14° 222° (SW) 03:56:34 .
YUBILEINY 21 Nov 04:04:57 04:11:10 22° 75° (ENE) 04:17:26 435.215
BEESAT 2 21 Nov 04:15:39 04:19:40 77° 128° (SE) 04:23:45 435.950
DOVE 4 21 Nov 04:15:41 04:19:49 23° 90° (E) 04:23:48 437.250
STARS 21 Nov 04:17:19 04:21:20 35° 66° (ENE) 04:25:22 437.465
STRAND 1 21 Nov 04:36:18 04:37:32 11° 49° (NE) 04:38:47 437.568
BEESAT 3 21 Nov 04:43:20 04:46:48 27° 324° (NW) 04:50:17 437.485
SO-50 21 Nov 04:50:20 04:54:24 30° 35° (NE) 04:58:31 436.795
M-CUBED/EXP-1 PRIME 21 Nov 04:57:44 05:00:34 17° 308° (NW) 05:03:28 437.505
AO-85 21 Nov 05:00:36 05:04:31 83° 128° (SE) 05:08:40 145.980
CUTE-I 21 Nov 05:01:14 05:03:06 12° 84° (E) 05:04:57 437.470
RS-15 21 Nov 05:06:59 05:17:29 40° 252° (WSW) 05:27:33 29.354- 29.394
ITAMSAT 1 21 Nov 05:08:50 05:13:34 36° 296° (WNW) 05:18:16 435.822/435.867
XW-2C 21 Nov 05:08:54 05:10:29 12° 88° (E) 05:12:04 145.795 - 145.815
LilacSat-2 21 Nov 05:10:12 05:12:11 14° 89° (E) 05:14:12 437.200
XW-2F 21 Nov 05:19:20 05:21:32 15° 90° (E) 05:23:44 145.980 - 146.000
PCSat 21 Nov 05:21:43 05:23:57 12° 4° (N) 05:26:11 145.827
KKS-1 21 Nov 05:29:20 05:32:57 24° 267° (W) 05:36:35 437.445
AO-7 21 Nov 05:32:55 05:40:34 42° 305° (NW) 05:48:13 .
FO-29 21 Nov 05:37:07 05:41:30 18° 45° (NE) 05:46:06 435.910
KAITUO 1B 21 Nov 05:47:01 05:50:03 23° 94° (E) 05:53:05 145.475/437.950
DOVE 4 21 Nov 05:52:42 05:57:52 58° 289° (WNW) 06:02:48 437.250
HO-68 21 Nov 05:53:22 05:58:11 19° 87° (E) 06:02:57 435.675
STARS 21 Nov 05:53:48 05:57:42 30° 264° (W) 06:01:37 437.465
BEESAT 2 21 Nov 05:54:40 05:57:51 22° 328° (NNW) 06:01:04 435.950
YUBILEINY 21 Nov 05:57:56 06:06:43 87° 97° (E) 06:15:36 435.215
XW-2D 21 Nov 06:00:56 06:04:36 44° 99° (E) 06:08:15 145.860 - 145.880
STRAND 1 21 Nov 06:10:38 06:15:39 55° 69° (ENE) 06:20:42 437.568
XW-2B 21 Nov 06:15:41 06:19:28 62° 101° (E) 06:23:15 145.730 - 145.750
BEESAT 3 21 Nov 06:24:38 06:25:37 11° 346° (NNW) 06:26:38 437.485
SO-50 21 Nov 06:30:37 06:35:11 61° 235° (SW) 06:39:48 436.795
NUDT-PHONESAT 21 Nov 06:31:36 06:35:18 67° 102° (ESE) 06:38:59 437.300
CUTE-I 21 Nov 06:38:42 06:44:06 74° 104° (ESE) 06:49:27 437.470
CUTE 1.7 + AOD 2 21 Nov 06:40:52 06:44:41 31° 95° (E) 06:48:30 437.475
XW-2C 21 Nov 06:41:18 06:45:05 67° 286° (WNW) 06:48:53 145.795 - 145.815
AO-85 21 Nov 06:42:22 06:45:28 21° 331° (NNW) 06:48:44 145.980
LilacSat-2 21 Nov 06:43:03 06:46:50 59° 287° (WNW) 06:50:37 437.200
XW-2F 21 Nov 06:52:15 06:55:58 53° 288° (WNW) 06:59:41 145.980 - 146.000
UWE-3 21 Nov 06:56:56 06:59:31 16° 89° (E) 07:02:06 435.000/436.395/437.385
PCSat 21 Nov 07:05:20 07:09:29 22° 30° (NNE) 07:13:38 145.827
SEEDS 21 Nov 07:11:36 07:15:36 39° 97° (E) 07:19:36 437.485
FO-29 21 Nov 07:18:19 07:25:00 61° 67° (ENE) 07:32:27 435.910
AAUSAT CUBESAT 2 21 Nov 07:19:18 07:22:39 23° 93° (E) 07:25:59 437.432
KAITUO 1B 21 Nov 07:20:41 07:24:06 33° 291° (WNW) 07:27:30 145.475/437.950
AO-7 21 Nov 07:27:08 07:31:12 15° 329° (NNW) 07:35:16 .
DOVE 4 21 Nov 07:32:45 07:34:25 11° 310° (NW) 07:36:04 437.250
CUBEBUG 2 21 Nov 07:35:05 07:39:16 64° 101° (ESE) 07:43:22 437.445
XW-2D 21 Nov 07:35:46 07:38:29 19° 297° (WNW) 07:41:12 145.860 - 145.880
BEESAT 2 21 Nov 07:36:50 07:37:03 10° 351° (N) 07:37:17 435.950
AO-73 21 Nov 07:38:22 07:41:29 20° 92° (E) 07:44:36 145.935
HO-68 21 Nov 07:39:43 07:46:59 84° 107° (ESE) 07:54:10 435.675
UNISAT 6 21 Nov 07:41:23 07:44:28 18° 60° (ENE) 07:47:29 437.425
TIGRISAT 21 Nov 07:45:45 07:48:50 18° 60° (ENE) 07:51:54 435.000
STRAND 1 21 Nov 07:51:01 07:55:10 24° 268° (W) 07:59:19 437.568
XW-2B 21 Nov 07:51:05 07:53:12 15° 299° (WNW) 07:55:19 145.730 - 145.750
Oscar 11 21 Nov 07:54:51 07:58:13 22° 92° (E) 08:01:34 .
XW-2A 21 Nov 07:56:11 07:59:31 59° 101° (E) 08:02:51 145.665 - 145.685
YUBILEINY 21 Nov 07:57:42 08:04:47 26° 302° (WNW) 08:11:58 435.215
BEESAT 3 21 Nov 08:04:44 08:04:58 10° 11° (N) 08:05:12 437.485
NUDT-PHONESAT 21 Nov 08:06:53 08:08:40 13° 300° (WNW) 08:10:27 437.300
CUTE 1.7 + AOD 2 21 Nov 08:16:42 08:20:29 31° 294° (WNW) 08:24:16 437.475
CUTE-I 21 Nov 08:19:39 08:23:37 22° 303° (WNW) 08:27:35 437.470
ZACube-1 21 Nov 08:22:44 08:26:51 63° 101° (ESE) 08:30:59 437.345
AO-85 21 Nov 08:26:12 08:27:30 11° 356° (N) 08:28:50 145.980
UWE-3 21 Nov 08:32:17 08:36:23 57° 288° (WNW) 08:40:26 435.000/436.395/437.385
PRISM 21 Nov 08:42:15 08:45:37 24° 63° (ENE) 08:48:59 437.425
SEEDS 21 Nov 08:47:38 08:51:07 25° 296° (WNW) 08:54:34 437.485
PCSat 21 Nov 08:48:22 08:53:49 74° 52° (NE) 08:59:15 145.827
AAUSAT CUBESAT 2 21 Nov 08:54:18 08:58:16 41° 291° (WNW) 09:02:11 437.432
Max Valier Satellite 21 Nov 08:59:09 09:01:11 14° 90° (E) 09:03:12 145.860
FO-29 21 Nov 09:04:28 09:10:30 33° 270° (W) 09:17:09 435.910
AIST 2D 21 Nov 09:09:03 09:10:23 12° 60° (ENE) 09:11:45 435.315
CUBEBUG 2 21 Nov 09:12:49 09:15:25 16° 301° (WNW) 09:18:01 437.445
AO-73 21 Nov 09:14:00 09:17:57 44° 290° (WNW) 09:21:54 145.935
BEESAT 2 21 Nov 09:15:05 09:16:35 12° 16° (NNE) 09:18:03 435.950
UNISAT 6 21 Nov 09:16:12 09:20:44 66° 258° (WSW) 09:25:12 437.425
TIGRISAT 21 Nov 09:20:35 09:25:07 65° 259° (WSW) 09:29:34 435.000
DELFI C3 21 Nov 09:25:30 09:29:18 39° 98° (E) 09:33:03 145.870
HO-68 21 Nov 09:28:15 09:33:59 27° 308° (NW) 09:39:42 435.675
XW-2A 21 Nov 09:30:24 09:31:47 12° 299° (WNW) 09:33:10 145.665 - 145.685
Oscar 11 21 Nov 09:30:26 09:34:34 45° 290° (WNW) 09:38:42 .
BEESAT 3 21 Nov 09:40:38 09:43:54 23° 34° (NE) 09:47:07 437.485
QB50P2 21 Nov 09:45:02 09:47:42 16° 59° (ENE) 09:50:22 145.880/145.840
ZACube-1 21 Nov 10:00:07 10:02:42 16° 300° (WNW) 10:05:18 437.345
AO-85 21 Nov 10:07:04 10:09:45 15° 21° (NNE) 10:12:31 145.980
PRISM 21 Nov 10:16:49 10:20:41 39° 262° (W) 10:24:38 437.425
EO-88 21 Nov 10:30:01 10:33:41 77° 286° (WNW) 10:37:20 145.990 - 145.960
Max Valier Satellite 21 Nov 10:31:44 10:35:19 52° 288° (WNW) 10:38:53 145.860
PCSat 21 Nov 10:32:38 10:36:40 22° 252° (WSW) 10:40:42 145.827
DUCHIFAT 1 21 Nov 10:33:21 10:37:05 32° 66° (ENE) 10:40:50 145.980
AIST 2D 21 Nov 10:39:39 10:43:05 65° 259° (WSW) 10:46:33 435.315
EO-79 21 Nov 10:40:18 10:44:22 46° 70° (ENE) 10:48:26 145.935-145.965
ESTCUBE 1 21 Nov 10:42:41 10:45:53 19° 90° (E) 10:49:05 437.505/2401.250
NANOSAT C BR1 21 Nov 10:43:35 10:47:36 44° 69° (ENE) 10:51:38 145.865
BEESAT 2 21 Nov 10:51:52 10:55:31 31° 38° (NE) 10:59:08 435.950
LO-87 21 Nov 10:54:42 10:57:48 27° 95° (E) 11:00:52 145.935 - 145.965
POLYITAN 1 21 Nov 10:55:28 10:59:40 65° 73° (ENE) 11:03:52 437.675
DELFI C3 21 Nov 11:00:40 11:03:50 23° 296° (WNW) 11:06:59 145.870
AO-7 21 Nov 11:06:29 11:09:19 12° 25° (NNE) 11:12:08 .
BEESAT 3 21 Nov 11:17:50 11:21:47 64° 234° (SW) 11:25:38 437.485
QB50P2 21 Nov 11:18:47 11:23:01 67° 258° (WSW) 11:27:15 145.880/145.840
Oscar 19 21 Nov 11:21:12 11:25:01 22° 58° (ENE) 11:28:52 437.125/150
BUGSAT 1 21 Nov 11:25:51 11:29:31 30° 66° (ENE) 11:33:10 437.445
Gurwin Techsat 1B 21 Nov 11:46:15 11:50:36 26° 60° (ENE) 11:54:57 435.225
AO-85 21 Nov 11:46:50 11:51:11 45° 42° (NE) 11:55:53 145.980
SPROUT 21 Nov 11:59:41 12:03:20 27° 94° (E) 12:06:56 437.525
DUCHIFAT 1 21 Nov 12:09:02 12:12:45 30° 265° (W) 12:16:28 145.980
EO-79 21 Nov 12:17:08 12:20:21 21° 268° (W) 12:23:34 145.935-145.965
ESTCUBE 1 21 Nov 12:18:36 12:23:04 58° 289° (WNW) 12:27:30 437.505/2401.250
NANOSAT C BR1 21 Nov 12:20:15 12:23:31 21° 268° (W) 12:26:46 145.865
LO-87 21 Nov 12:28:11 12:31:07 24° 294° (WNW) 12:34:03 145.935 - 145.965
BEESAT 2 21 Nov 12:29:31 12:33:21 42° 239° (WSW) 12:37:07 435.950
POLYITAN 1 21 Nov 12:33:25 12:35:53 15° 271° (W) 12:38:21 437.675
O/OREOS (USA 219) 21 Nov 12:36:47 12:39:57 19° 101° (E) 12:43:09 437.305
M-CUBED/EXP-1 PRIME 21 Nov 12:38:35 12:41:38 25° 57° (ENE) 12:44:53 437.505
VELOX 1 21 Nov 12:38:38 12:42:54 42° 98° (E) 12:47:08 145.980
AO-7 21 Nov 12:52:29 12:59:35 33° 50° (NE) 13:06:44 .
Oscar 19 21 Nov 12:58:48 13:03:54 67° 258° (WSW) 13:09:01 437.125/150
BUGSAT 1 21 Nov 13:01:05 13:04:50 31° 264° (W) 13:08:34 437.445
ITAMSAT 1 21 Nov 13:14:32 13:17:51 17° 54° (NE) 13:21:10 435.822/435.867
DX 1 21 Nov 13:23:56 13:27:51 30° 96° (E) 13:31:42 434.975-435.025
Gurwin Techsat 1B 21 Nov 13:24:59 13:30:13 57° 259° (W) 13:35:29 435.225
AO-85 21 Nov 13:27:20 13:31:34 35° 241° (WSW) 13:36:04 145.980
SPROUT 21 Nov 13:35:24 13:39:17 35° 293° (WNW) 13:43:09 437.525
UKube-1 21 Nov 14:05:30 14:09:44 49° 100° (E) 14:13:56 .
YUBILEINY 21 Nov 14:07:12 14:12:12 16° 46° (NE) 14:17:12 435.215
M-CUBED/EXP-1 PRIME 21 Nov 14:12:33 14:15:53 34° 258° (WSW) 14:19:29 437.505
50 SAT 21 Nov 14:12:43 14:15:56 62° 287° (WNW) 14:19:06 437.505
O/OREOS (USA 219) 21 Nov 14:14:20 14:18:55 62° 300° (WNW) 14:23:30 437.305
VELOX 1 21 Nov 14:15:28 14:19:09 26° 297° (WNW) 14:22:49 145.980
AO-7 21 Nov 14:43:27 14:51:44 76° 252° (WSW) 15:00:06 .
ITAMSAT 1 21 Nov 14:51:22 14:56:37 89° 72° (ENE) 15:01:54 435.822/435.867
DX 1 21 Nov 15:00:04 15:04:02 34° 294° (WNW) 15:07:58 434.975-435.025
BEESAT 21 Nov 15:04:38 15:08:54 32° 96° (E) 15:13:09 436.000
NO-84 21 Nov 15:11:05 15:14:21 29° 135° (SE) 15:17:51 435.350 FM
ITUPSAT 1 21 Nov 15:14:22 15:18:49 38° 97° (E) 15:23:15 437.325
DOVE 4 21 Nov 15:24:26 15:29:04 36° 65° (ENE) 15:33:52 437.250
MOZHAYETS 4 21 Nov 15:24:44 15:29:17 64° 101° (ESE) 15:33:49
CUBESAT XI-V 21 Nov 15:37:13 15:41:02 24° 92° (E) 15:44:49 437.345
UKube-1 21 Nov 15:42:08 15:45:28 22° 299° (WNW) 15:48:46 .
XW-2C 21 Nov 15:54:44 15:56:18 12° 59° (ENE) 15:57:50 145.795 - 145.815
LilacSat-2 21 Nov 15:56:37 15:58:33 14° 60° (ENE) 16:00:30 437.200
O/OREOS (USA 219) 21 Nov 15:57:07 15:59:18 13° 322° (NW) 16:01:31 437.305
YUBILEINY 21 Nov 16:02:44 16:11:27 57° 73° (ENE) 16:20:06 435.215
XW-2F 21 Nov 16:04:39 16:06:40 14° 61° (ENE) 16:08:43 145.980 - 146.000
CUTE-I 21 Nov 16:25:56 16:30:35 31° 62° (ENE) 16:35:16 437.470
HO-68 21 Nov 16:27:00 16:32:36 25° 51° (NE) 16:38:14 435.675
KAITUO 1B 21 Nov 16:31:09 16:33:56 20° 64° (ENE) 16:36:43 145.475/437.950
ITAMSAT 1 21 Nov 16:33:53 16:36:48 15° 273° (W) 16:39:44 435.822/435.867
AO-7 21 Nov 16:40:33 16:45:55 18° 274° (W) 16:51:20 .
BEESAT 21 Nov 16:42:21 16:46:43 37° 295° (WNW) 16:51:04 436.000
XW-2D 21 Nov 16:45:59 16:49:29 39° 70° (ENE) 16:53:00 145.860 - 145.880
NO-84 21 Nov 16:47:35 16:51:27 68° 335° (NNW) 16:55:35 435.350 FM
ITUPSAT 1 21 Nov 16:52:23 16:56:34 31° 296° (WNW) 17:00:44 437.325
XW-2B 21 Nov 17:00:39 17:04:17 55° 73° (ENE) 17:07:59 145.730 - 145.750
DOVE 4 21 Nov 17:01:57 17:06:42 38° 265° (W) 17:11:37 437.250
MOZHAYETS 4 21 Nov 17:02:49 17:06:00 19° 301° (WNW) 17:09:11
CUBEBUG 2 21 Nov 17:03:00 17:05:13 14° 57° (ENE) 17:07:24 437.445
CUBESAT XI-V 21 Nov 17:14:08 17:18:37 47° 291° (WNW) 17:23:07 437.345
NUDT-PHONESAT 21 Nov 17:14:17 17:17:50 55° 73° (ENE) 17:21:27 437.300
KKS-1 21 Nov 17:14:37 17:18:58 47° 100° (E) 17:23:15 437.445
RS-15 21 Nov 17:23:58 17:33:44 29° 102° (ESE) 17:43:26 29.354- 29.394
XW-2C 21 Nov 17:26:12 17:29:55 75° 257° (WSW) 17:33:42 145.795 - 145.815
LilacSat-2 21 Nov 17:28:37 17:32:20 65° 258° (WSW) 17:36:07 437.200
XW-2F 21 Nov 17:36:40 17:40:20 61° 259° (W) 17:44:02 145.980 - 146.000
CUTE 1.7 + AOD 2 21 Nov 17:37:23 17:41:15 37° 68° (ENE) 17:45:09 437.475
STARS 21 Nov 17:38:03 17:42:07 35° 97° (E) 17:46:07 437.465
ZACube-1 21 Nov 17:49:20 17:50:54 12° 57° (ENE) 17:52:28 437.345
UWE-3 21 Nov 17:57:33 18:01:04 24° 64° (ENE) 18:04:32 435.000/436.395/437.385
YUBILEINY 21 Nov 17:59:59 18:07:59 40° 275° (W) 18:15:58 435.215
KAITUO 1B 21 Nov 18:04:16 18:07:41 37° 263° (W) 18:11:10 145.475/437.950
CUTE-I 21 Nov 18:05:17 18:10:27 47° 261° (W) 18:15:40 437.470
SEEDS 21 Nov 18:07:01 18:11:00 46° 70° (ENE) 18:15:02 437.485
HO-68 21 Nov 18:12:20 18:19:33 88° 254° (WSW) 18:26:49 435.675
AAUSAT CUBESAT 2 21 Nov 18:13:18 18:16:45 26° 65° (ENE) 18:20:14 437.432
STRAND 1 21 Nov 18:18:22 18:20:44 13° 86° (E) 18:23:06 437.568
XW-2D 21 Nov 18:21:06 18:23:49 19° 268° (W) 18:26:34 145.860 - 145.880
NO-84 21 Nov 18:25:29 18:29:17 38° 357° (N) 18:33:16 435.350 FM
XW-2A 21 Nov 18:31:04 18:34:10 37° 71° (ENE) 18:37:17 145.665 - 145.685
CUBEBUG 2 21 Nov 18:36:38 18:41:12 89° 85° (E) 18:45:40 437.445
XW-2B 21 Nov 18:36:47 18:38:49 14° 271° (W) 18:40:51 145.730 - 145.750
AO-73 21 Nov 18:37:40 18:41:18 28° 66° (ENE) 18:44:53 145.935
NUDT-PHONESAT 21 Nov 18:50:12 18:52:02 13° 271° (W) 18:53:54 437.300
KKS-1 21 Nov 18:51:41 18:55:15 24° 298° (WNW) 18:58:47 437.445
Oscar 11 21 Nov 18:53:34 18:57:14 28° 65° (ENE) 19:00:56 .
CUTE 1.7 + AOD 2 21 Nov 19:13:42 19:17:11 25° 267° (W) 19:20:42 437.475
STARS 21 Nov 19:14:32 19:18:22 30° 296° (WNW) 19:22:10 437.465
ZACube-1 21 Nov 19:22:12 19:26:32 83° 74° (ENE) 19:30:46 437.345
RS-15 21 Nov 19:32:16 19:44:39 85° 127° (SE) 19:56:53 29.354- 29.394
UWE-3 21 Nov 19:33:05 19:37:19 44° 262° (W) 19:41:28 435.000/436.395/437.385
Max Valier Satellite 21 Nov 19:42:32 19:44:20 13° 60° (ENE) 19:46:08 145.860
SEEDS 21 Nov 19:43:50 19:46:56 20° 269° (W) 19:50:03 437.485
AAUSAT CUBESAT 2 21 Nov 19:48:16 19:52:05 35° 264° (W) 19:55:56 437.432
STRAND 1 21 Nov 19:55:33 20:00:43 85° 104° (ESE) 20:05:49 437.568
NO-84 21 Nov 20:03:07 20:07:13 52° 18° (NNE) 20:11:25 435.350 FM
HO-68 21 Nov 20:03:15 20:08:17 20° 273° (W) 20:13:20 435.675
XW-2A 21 Nov 20:04:58 20:07:03 16° 268° (W) 20:09:08 145.665 - 145.685
FO-29 21 Nov 20:07:55 20:15:20 42° 94° (E) 20:22:22 435.910
AO-73 21 Nov 20:13:32 20:17:27 34° 264° (W) 20:21:19 145.935
DELFI C3 21 Nov 20:14:27 20:18:10 40° 70° (ENE) 20:21:56 145.870
CUBEBUG 2 21 Nov 20:16:40 20:18:25 12° 273° (W) 20:20:10 437.445
Oscar 11 21 Nov 20:29:21 20:33:18 35° 264° (W) 20:37:16 .
nSIGHT-1 21 Nov 20:32:33 20:34:44 17° 140° (SE) 20:36:55 .
SO-50 21 Nov 20:50:46 20:53:13 15° 111° (ESE) 20:55:41 436.795
ZACube-1 21 Nov 21:01:49 21:03:22 12° 273° (W) 21:04:55 437.345
O/OREOS (USA 219) 21 Nov 21:02:34 21:05:10 15° 40° (NE) 21:07:46 437.305
UNISAT 6 21 Nov 21:04:12 21:07:12 18° 91° (E) 21:10:12 437.425
TIGRISAT 21 Nov 21:08:24 21:11:26 19° 91° (E) 21:14:24 435.000
EO-88 21 Nov 21:11:10 21:14:47 85° 75° (ENE) 21:18:26 145.990 - 145.960
Max Valier Satellite 21 Nov 21:14:04 21:17:41 63° 259° (WSW) 21:21:20 145.860
ISS 21 Nov 21:17:16 21:20:11 30° 147° (SSE) 21:23:07 437.550
LO-87 21 Nov 21:34:40 21:37:34 23° 66° (ENE) 21:40:28 145.935 - 145.965
STRAND 1 21 Nov 21:35:55 21:39:16 18° 304° (NW) 21:42:35 437.568
NO-84 21 Nov 21:40:32 21:44:40 52° 217° (SW) 21:48:49 435.350 FM
ESTCUBE 1 21 Nov 21:46:02 21:49:52 29° 64° (ENE) 21:53:44 437.505/2401.250
RS-15 21 Nov 21:46:44 21:58:33 48° 335° (NNW) 22:10:05 29.354- 29.394
DELFI C3 21 Nov 21:50:01 21:53:04 21° 268° (W) 21:56:10 145.870
FO-29 21 Nov 21:52:53 22:00:30 54° 295° (WNW) 22:07:49 435.910
PRISM 21 Nov 21:53:51 21:57:01 21° 92° (E) 22:00:09 437.425
nSIGHT-1 21 Nov 22:07:21 22:10:33 73° 158° (SSE) 22:13:46 .
VELOX 1 21 Nov 22:07:43 22:08:23 10° 52° (NE) 22:09:04 145.980
SO-50 21 Nov 22:28:32 22:33:01 88° 311° (NW) 22:37:34 436.795
UNISAT 6 21 Nov 22:40:04 22:44:15 52° 290° (WNW) 22:48:23 437.425
O/OREOS (USA 219) 21 Nov 22:40:50 22:45:26 75° 62° (ENE) 22:49:57 437.305
TIGRISAT 21 Nov 22:44:17 22:48:26 51° 289° (WNW) 22:52:33 435.000
ISS 21 Nov 22:53:12 22:56:29 78° 345° (NNW) 22:59:46 437.550
SPROUT 21 Nov 22:56:41 23:00:36 36° 67° (ENE) 23:04:31 437.525
QB50P2 21 Nov 23:00:22 23:02:45 15° 89° (E) 23:05:07 145.880/145.840
LO-87 21 Nov 23:07:36 23:10:50 31° 263° (W) 23:14:06 145.935 - 145.965
NO-84 21 Nov 23:20:04 23:21:15 11° 235° (SW) 23:22:24 435.350 FM
ESTCUBE 1 21 Nov 23:22:23 23:26:33 37° 263° (W) 23:30:46 437.505/2401.250
PRISM 21 Nov 23:28:30 23:32:30 45° 291° (WNW) 23:36:28 437.425
UKube-1 21 Nov 23:31:23 23:32:42 11° 54° (NE) 23:34:02 .
AIST 2D 21 Nov 23:32:57 23:36:30 82° 103° (ESE) 23:40:02 435.315
PCSat 21 Nov 23:35:05 23:39:31 26° 110° (ESE) 23:43:58 145.827
FO-29 21 Nov 23:39:22 23:43:52 17° 316° (NW) 23:48:20 435.910
VELOX 1 21 Nov 23:39:34 23:43:57 64° 72° (ENE) 23:48:23 145.980
nSIGHT-1 21 Nov 23:43:43 23:46:54 57° 358° (N) 23:50:04 .
DUCHIFAT 1 21 Nov 23:48:00 23:51:43 30° 96° (E) 23:55:24 145.980
EO-79 21 Nov 23:55:56 00:00:00 46° 99° (E) 00:04:01 145.935-145.965
NANOSAT C BR1 21 Nov 23:58:45 00:02:47 44° 99° (E) 00:06:46 145.865
RS-15 22 Nov 00:03:14 00:14:32 40° 8° (N) 00:25:23 29.354- 29.394
SO-50 22 Nov 00:10:33 00:14:06 22° 332° (NNW) 00:17:43 436.795
POLYITAN 1 22 Nov 00:11:22 00:15:34 66° 102° (ESE) 00:19:42 437.675
O/OREOS (USA 219) 22 Nov 00:21:40 00:24:14 15° 261° (W) 00:26:47 437.305
DX 1 22 Nov 00:23:10 00:27:21 46° 69° (ENE) 00:31:33 434.975-435.025
ISS 22 Nov 00:29:54 00:33:09 60° 5° (N) 00:36:24 437.550
SPROUT 22 Nov 00:32:53 00:36:33 27° 266° (W) 00:40:13 437.525
QB50P2 22 Nov 00:34:47 00:38:58 65° 288° (WNW) 00:43:08 145.880/145.840
BUGSAT 1 22 Nov 00:38:08 00:41:34 26° 95° (E) 00:44:57 437.445
BEESAT 22 Nov 00:41:34 00:42:43 11° 51° (NE) 00:43:53 436.000
50 SAT 22 Nov 00:43:16 00:46:30 78° 75° (ENE) 00:49:46 437.505
ITUPSAT 1 22 Nov 00:50:41 00:52:45 13° 53° (NE) 00:54:50 437.325
MOZHAYETS 4 22 Nov 00:55:51 00:58:31 16° 57° (ENE) 01:01:12
UKube-1 22 Nov 01:03:38 01:07:57 74° 72° (ENE) 01:12:18 .
Oscar 19 22 Nov 01:06:01 01:10:34 31° 95° (E) 01:15:07 437.125/150
AIST 2D 22 Nov 01:08:37 01:09:06 10° 301° (WNW) 01:09:36 435.315
PCSat 22 Nov 01:17:09 01:22:32 62° 310° (NW) 01:27:57 145.827
VELOX 1 22 Nov 01:17:59 01:20:50 17° 270° (W) 01:23:42 145.980
nSIGHT-1 22 Nov 01:20:04 01:23:17 89° 3° (N) 01:26:30 .
DUCHIFAT 1 22 Nov 01:23:40 01:27:22 31° 294° (WNW) 01:31:01 145.980
EO-79 22 Nov 01:32:16 01:35:29 22° 298° (WNW) 01:38:41 145.935-145.965
NANOSAT C BR1 22 Nov 01:34:59 01:38:15 22° 297° (WNW) 01:41:30 145.865
Gurwin Techsat 1B 22 Nov 01:36:38 01:41:41 41° 98° (E) 01:46:40 435.225
M-CUBED/EXP-1 PRIME 22 Nov 01:47:38 01:49:00 11° 92° (E) 01:50:23 437.505
POLYITAN 1 22 Nov 01:48:15 01:50:52 16° 301° (WNW) 01:53:28 437.675
SO-50 22 Nov 01:54:13 01:56:12 13° 356° (N) 01:58:13 436.795
DX 1 22 Nov 02:00:19 02:03:44 22° 267° (W) 02:07:12 434.975-435.025
ISS 22 Nov 02:06:27 02:09:41 59° 205° (SSW) 02:12:54 437.550
BUGSAT 1 22 Nov 02:13:19 02:16:58 33° 293° (WNW) 02:20:35 437.445
BEESAT 22 Nov 02:14:52 02:19:34 61° 70° (ENE) 02:24:16 436.000
BEESAT 2 22 Nov 02:27:00 02:27:58 11° 109° (ESE) 02:28:55 435.950
